Location: ?????
(31.8092°N, 35.2590°E)
Time: 20:36:48
(UTC+00:00)

SL-24 DEB - Pass Details

Date: 20 June 2021
Orbit: 664 x 700 km, 92.0° (Epoch: 23 July)

Event Time Altitude Azimuth Distance (km) Brightness Sun altitude
Exits shadow 17:43:07 - 174° (S) 2,763 7.0 -10.8°
Reaches altitude 10° 17:44:40 10° 175° (S) 2,134 6.4 -11.1°
Maximum altitude 17:49:23 88° 262° (W) 700 4.3 -11.9°
Drops below altitude 10° 17:54:10 10° 354° (N) 2,164 7.5 -12.7°
Sets 17:56:27 0° 355° (N) 3,087 8.3 -13.0°
